contact:dominique.lefevre@mio.osupytheas.fr, maurice.libes@osupytheas.fr, didier.mallarino@osupytheas.fr
Project:EMSO http://www.emso-fr.org/EMSO-France
Depth: 2436.0 m
Title:EMSO Ligure Ouest : Data MII capteur CSTAR
DateTime,Latitude,Longitude,Instrument_Serial,Reference_Counts,Signal_Counts,Corrected_Signal_raw_counts,Calculated_Beam_c_inverse_meters,Internal_thermistor_counts
DateTime,Latitude,Longitude,Instrument_Serial,Reference_Counts,Signal_Counts,Corrected_Signal_raw_counts,Calculated_Beam_c_inverse_meters,Internal_thermistor_counts
2022-01-06T00:00:24,42.805,6.029,CST-1368DR,4991,6353,13603,0.552,551
2022-01-06T00:03:26,42.805,6.029,CST-1368DR,4991,6354,13605,0.551,551
2022-01-06T00:06:28,42.805,6.029,CST-1368DR,4991,6352,13601,0.553,551
2022-01-06T00:09:29,42.805,6.029,CST-1368DR,4991,6353,13604,0.552,551
2022-01-06T00:12:31,42.805,6.029,CST-1368DR,4991,6353,13604,0.552,551
2022-01-06T00:15:32,42.805,6.029,CST-1368DR,4991,6353,13603,0.552,551
2022-01-06T00:18:34,42.805,6.029,CST-1368DR,4991,6351,13598,0.553,551
2022-01-06T00:21:35,42.805,6.029,CST-1368DR,4991,6352,13602,0.552,551
2022-01-06T00:24:37,42.805,6.029,CST-1368DR,4991,6352,13602,0.552,551
2022-01-06T00:27:39,42.805,6.029,CST-1368DR,4991,6353,13602,0.552,551
2022-01-06T00:30:40,42.805,6.029,CST-1368DR,4991,6352,13601,0.553,551
2022-01-06T00:33:42,42.805,6.029,CST-1368DR,4991,6353,13603,0.552,551
2022-01-06T00:36:43,42.805,6.029,CST-1368DR,4991,6353,13602,0.552,551
2022-01-06T00:39:45,42.805,6.029,CST-1368DR,4991,6353,13603,0.552,551
2022-01-06T00:42:46,42.805,6.029,CST-1368DR,4991,6352,13601,0.553,551
2022-01-06T00:45:48,42.805,6.029,CST-1368DR,4991,6353,13604,0.552,551
2022-01-06T00:48:50,42.805,6.029,CST-1368DR,4991,6353,13603,0.552,551
2022-01-06T00:51:51,42.805,6.029,CST-1368DR,4991,6353,13604,0.552,551
2022-01-06T00:54:53,42.805,6.029,CST-1368DR,4991,6354,13604,0.552,551
2022-01-06T00:57:54,42.805,6.029,CST-1368DR,4991,6353,13604,0.552,551
2022-01-06T01:00:56,42.805,6.029,CST-1368DR,4991,6354,13604,0.552,551
2022-01-06T01:03:58,42.805,6.029,CST-1368DR,4991,6354,13605,0.551,551
2022-01-06T01:06:59,42.805,6.029,CST-1368DR,4991,6353,13603,0.552,551
2022-01-06T01:10:01,42.805,6.029,CST-1368DR,4991,6353,13602,0.552,551
2022-01-06T01:13:02,42.805,6.029,CST-1368DR,4991,6352,13601,0.553,551
2022-01-06T01:16:04,42.805,6.029,CST-1368DR,4991,6353,13602,0.552,551
2022-01-06T01:19:05,42.805,6.029,CST-1368DR,4991,6352,13600,0.553,551
2022-01-06T01:22:07,42.805,6.029,CST-1368DR,4991,6351,13598,0.553,551
2022-01-06T01:25:09,42.805,6.029,CST-1368DR,4991,6352,13602,0.552,551
2022-01-06T01:28:10,42.805,6.029,CST-1368DR,4991,6351,13599,0.553,551
2022-01-06T01:31:12,42.805,6.029,CST-1368DR,4991,6348,13592,0.555,551
2022-01-06T01:34:13,42.805,6.029,CST-1368DR,4991,6352,13600,0.553,551
2022-01-06T01:37:15,42.805,6.029,CST-1368DR,4991,6353,13603,0.552,551
2022-01-06T01:40:17,42.805,6.029,CST-1368DR,4991,6352,13601,0.553,551
2022-01-06T01:43:18,42.805,6.029,CST-1368DR,4991,6352,13601,0.553,551
2022-01-06T01:46:20,42.805,6.029,CST-1368DR,4991,6352,13600,0.553,551
2022-01-06T01:49:21,42.805,6.029,CST-1368DR,4991,6351,13599,0.553,551
2022-01-06T01:52:23,42.805,6.029,CST-1368DR,4991,6352,13600,0.553,551
2022-01-06T01:55:24,42.805,6.029,CST-1368DR,4991,6352,13601,0.553,551
2022-01-06T01:58:26,42.805,6.029,CST-1368DR,4991,6353,13603,0.552,551
2022-01-06T02:01:28,42.805,6.029,CST-1368DR,4991,6351,13598,0.553,551
2022-01-06T02:04:29,42.805,6.029,CST-1368DR,4991,6352,13600,0.553,551
2022-01-06T02:07:31,42.805,6.029,CST-1368DR,4991,6351,13598,0.553,551
2022-01-06T02:10:32,42.805,6.029,CST-1368DR,4991,6350,13596,0.554,551
2022-01-06T02:13:34,42.805,6.029,CST-1368DR,4991,6351,13598,0.553,551
2022-01-06T02:16:36,42.805,6.029,CST-1368DR,4991,6352,13600,0.553,551
2022-01-06T02:19:37,42.805,6.029,CST-1368DR,4991,6351,13599,0.553,551
2022-01-06T02:22:39,42.805,6.029,CST-1368DR,4991,6352,13602,0.552,551
2022-01-06T02:25:40,42.805,6.029,CST-1368DR,4991,6343,13582,0.558,551
2022-01-06T02:28:42,42.805,6.029,CST-1368DR,4991,6352,13600,0.553,551
2022-01-06T02:31:43,42.805,6.029,CST-1368DR,4991,6349,13594,0.555,551
2022-01-06T02:34:45,42.805,6.029,CST-1368DR,4991,6351,13599,0.553,551
2022-01-06T02:37:47,42.805,6.029,CST-1368DR,4991,6352,13600,0.553,551
2022-01-06T02:40:48,42.805,6.029,CST-1368DR,4991,6351,13599,0.553,551
2022-01-06T02:43:50,42.805,6.029,CST-1368DR,4991,6351,13599,0.553,551
2022-01-06T02:46:51,42.805,6.029,CST-1368DR,4991,6350,13597,0.554,551
2022-01-06T02:49:53,42.805,6.029,CST-1368DR,4991,6352,13600,0.553,551
2022-01-06T02:52:55,42.805,6.029,CST-1368DR,4991,6352,13600,0.553,551
2022-01-06T02:55:56,42.805,6.029,CST-1368DR,4991,6352,13600,0.553,551
2022-01-06T02:58:58,42.805,6.029,CST-1368DR,4991,6351,13599,0.553,551
2022-01-06T03:01:59,42.805,6.029,CST-1368DR,4991,6351,13599,0.553,551
2022-01-06T03:05:01,42.805,6.029,CST-1368DR,4991,6352,13600,0.553,551
2022-01-06T03:08:02,42.805,6.029,CST-1368DR,4991,6352,13601,0.553,551
2022-01-06T03:11:04,42.805,6.029,CST-1368DR,4991,6351,13598,0.553,551
2022-01-06T03:14:06,42.805,6.029,CST-1368DR,4991,6352,13600,0.553,551
2022-01-06T03:17:07,42.805,6.029,CST-1368DR,4991,6353,13603,0.552,551
2022-01-06T03:20:09,42.805,6.029,CST-1368DR,4991,6351,13598,0.553,551
2022-01-06T03:23:10,42.805,6.029,CST-1368DR,4991,6351,13599,0.553,551
2022-01-06T03:26:12,42.805,6.029,CST-1368DR,4991,6351,13598,0.553,551
2022-01-06T03:29:13,42.805,6.029,CST-1368DR,4991,6351,13598,0.553,551
2022-01-06T03:32:15,42.805,6.029,CST-1368DR,4991,6352,13602,0.552,551
2022-01-06T03:35:17,42.805,6.029,CST-1368DR,4991,6351,13598,0.553,551
2022-01-06T03:38:18,42.805,6.029,CST-1368DR,4991,6351,13599,0.553,551
2022-01-06T03:41:20,42.805,6.029,CST-1368DR,4991,6351,13598,0.553,551
2022-01-06T03:44:21,42.805,6.029,CST-1368DR,4991,6350,13597,0.554,551
2022-01-06T03:47:23,42.805,6.029,CST-1368DR,4991,6352,13600,0.553,551
2022-01-06T03:50:25,42.805,6.029,CST-1368DR,4991,6350,13597,0.554,551
2022-01-06T03:53:26,42.805,6.029,CST-1368DR,4991,6352,13600,0.553,551
2022-01-06T03:56:28,42.805,6.029,CST-1368DR,4991,6351,13599,0.553,551
2022-01-06T03:59:29,42.805,6.029,CST-1368DR,4991,6352,13601,0.553,551
2022-01-06T04:02:31,42.805,6.029,CST-1368DR,4991,6350,13597,0.554,551
2022-01-06T04:05:32,42.805,6.029,CST-1368DR,4991,6350,13596,0.554,551
2022-01-06T04:08:34,42.805,6.029,CST-1368DR,4991,6349,13594,0.555,551
2022-01-06T04:11:36,42.805,6.029,CST-1368DR,4991,6350,13596,0.554,551
2022-01-06T04:14:37,42.805,6.029,CST-1368DR,4991,6349,13595,0.554,551
2022-01-06T04:17:39,42.805,6.029,CST-1368DR,4991,6350,13596,0.554,551
2022-01-06T04:20:40,42.805,6.029,CST-1368DR,4991,6350,13596,0.554,551
2022-01-06T04:23:42,42.805,6.029,CST-1368DR,4991,6350,13596,0.554,551
2022-01-06T04:26:44,42.805,6.029,CST-1368DR,4991,6350,13597,0.554,551
2022-01-06T04:29:45,42.805,6.029,CST-1368DR,4991,6350,13596,0.554,550
2022-01-06T04:32:47,42.805,6.029,CST-1368DR,4991,6350,13596,0.554,551
2022-01-06T04:35:48,42.805,6.029,CST-1368DR,4991,6350,13596,0.554,551
2022-01-06T04:38:50,42.805,6.029,CST-1368DR,4991,6350,13597,0.554,551
2022-01-06T04:41:51,42.805,6.029,CST-1368DR,4991,6350,13597,0.554,551
2022-01-06T04:44:53,42.805,6.029,CST-1368DR,4991,6347,13589,0.556,551
2022-01-06T04:47:55,42.805,6.029,CST-1368DR,4991,6339,13573,0.561,551
2022-01-06T04:50:56,42.805,6.029,CST-1368DR,4991,6345,13585,0.557,551
2022-01-06T04:53:58,42.805,6.029,CST-1368DR,4991,6345,13587,0.557,551
2022-01-06T04:56:59,42.805,6.029,CST-1368DR,4991,6349,13594,0.555,551
2022-01-06T05:00:01,42.805,6.029,CST-1368DR,4991,6349,13595,0.554,551
2022-01-06T05:03:03,42.805,6.029,CST-1368DR,4991,6350,13596,0.554,551
2022-01-06T05:06:04,42.805,6.029,CST-1368DR,4991,6347,13591,0.556,551
2022-01-06T05:09:06,42.805,6.029,CST-1368DR,4991,6349,13595,0.554,551
2022-01-06T05:12:07,42.805,6.029,CST-1368DR,4991,6349,13594,0.555,551
2022-01-06T05:15:09,42.805,6.029,CST-1368DR,4991,6350,13596,0.554,551
2022-01-06T05:18:10,42.805,6.029,CST-1368DR,4991,6349,13595,0.554,551
2022-01-06T05:21:12,42.805,6.029,CST-1368DR,4991,6350,13597,0.554,551
2022-01-06T05:24:14,42.805,6.029,CST-1368DR,4991,6349,13595,0.554,551
2022-01-06T05:27:15,42.805,6.029,CST-1368DR,4991,6349,13594,0.555,551
2022-01-06T05:30:17,42.805,6.029,CST-1368DR,4991,6349,13594,0.555,551
2022-01-06T05:33:18,42.805,6.029,CST-1368DR,4991,6349,13594,0.555,551
2022-01-06T05:36:20,42.805,6.029,CST-1368DR,4991,6345,13586,0.557,551
2022-01-06T05:39:21,42.805,6.029,CST-1368DR,4991,6348,13593,0.555,551
2022-01-06T05:42:23,42.805,6.029,CST-1368DR,4991,6349,13594,0.555,551
2022-01-06T05:45:25,42.805,6.029,CST-1368DR,4991,6350,13596,0.554,551
2022-01-06T05:48:26,42.805,6.029,CST-1368DR,4991,6349,13595,0.554,551
2022-01-06T05:51:28,42.805,6.029,CST-1368DR,4991,6349,13594,0.555,551
2022-01-06T05:54:29,42.805,6.029,CST-1368DR,4991,6348,13593,0.555,551
2022-01-06T05:57:31,42.805,6.029,CST-1368DR,4991,6349,13595,0.554,551
2022-01-06T06:00:33,42.805,6.029,CST-1368DR,4991,6349,13595,0.554,551
2022-01-06T06:03:34,42.805,6.029,CST-1368DR,4991,6349,13595,0.554,551
2022-01-06T06:06:36,42.805,6.029,CST-1368DR,4991,6350,13596,0.554,551
2022-01-06T06:09:37,42.805,6.029,CST-1368DR,4991,6350,13596,0.554,551
2022-01-06T06:12:39,42.805,6.029,CST-1368DR,4991,6349,13595,0.554,551
2022-01-06T06:15:40,42.805,6.029,CST-1368DR,4991,6349,13594,0.555,551
2022-01-06T06:18:42,42.805,6.029,CST-1368DR,4991,6350,13596,0.554,550
2022-01-06T06:21:44,42.805,6.029,CST-1368DR,4991,6350,13596,0.554,551
2022-01-06T06:24:45,42.805,6.029,CST-1368DR,4991,6348,13591,0.556,551
2022-01-06T06:27:47,42.805,6.029,CST-1368DR,4991,6350,13597,0.554,551
2022-01-06T06:30:48,42.805,6.029,CST-1368DR,4991,6350,13596,0.554,551
2022-01-06T06:33:50,42.805,6.029,CST-1368DR,4991,6349,13594,0.555,551
2022-01-06T06:36:52,42.805,6.029,CST-1368DR,4991,6349,13595,0.554,551
2022-01-06T06:39:53,42.805,6.029,CST-1368DR,4991,6347,13591,0.556,551
2022-01-06T06:42:55,42.805,6.029,CST-1368DR,4991,6350,13596,0.554,551
2022-01-06T06:45:56,42.805,6.029,CST-1368DR,4991,6350,13596,0.554,551
2022-01-06T06:48:58,42.805,6.029,CST-1368DR,4991,6350,13596,0.554,551
2022-01-06T06:51:59,42.805,6.029,CST-1368DR,4991,6349,13594,0.555,551
2022-01-06T06:55:01,42.805,6.029,CST-1368DR,4991,6350,13596,0.554,551
2022-01-06T06:58:03,42.805,6.029,CST-1368DR,4991,6349,13595,0.554,551
2022-01-06T07:01:04,42.805,6.029,CST-1368DR,4991,6349,13594,0.555,551
2022-01-06T07:04:06,42.805,6.029,CST-1368DR,4990,6348,13596,0.554,551
2022-01-06T07:07:07,42.805,6.029,CST-1368DR,4991,6349,13594,0.555,551
2022-01-06T07:10:09,42.805,6.029,CST-1368DR,4991,6349,13594,0.555,551
2022-01-06T07:13:10,42.805,6.029,CST-1368DR,4991,6349,13594,0.555,551
2022-01-06T07:16:12,42.805,6.029,CST-1368DR,4991,6347,13591,0.556,551
2022-01-06T07:19:14,42.805,6.029,CST-1368DR,4991,6348,13592,0.555,551
2022-01-06T07:22:15,42.805,6.029,CST-1368DR,4991,6348,13592,0.555,551
2022-01-06T07:25:17,42.805,6.029,CST-1368DR,4991,6347,13590,0.556,551
2022-01-06T07:28:18,42.805,6.029,CST-1368DR,4991,6348,13593,0.555,550
2022-01-06T07:31:20,42.805,6.029,CST-1368DR,4991,6347,13590,0.556,551
2022-01-06T07:34:22,42.805,6.029,CST-1368DR,4991,6346,13588,0.556,551
2022-01-06T07:37:23,42.805,6.029,CST-1368DR,4991,6344,13584,0.558,551
2022-01-06T07:40:25,42.805,6.029,CST-1368DR,4991,6347,13590,0.556,551
2022-01-06T07:43:26,42.805,6.029,CST-1368DR,4991,6346,13588,0.556,551
2022-01-06T07:46:28,42.805,6.029,CST-1368DR,4991,6346,13588,0.556,551
2022-01-06T07:49:29,42.805,6.029,CST-1368DR,4991,6347,13591,0.556,551
2022-01-06T07:52:31,42.805,6.029,CST-1368DR,4991,6347,13591,0.556,551
2022-01-06T07:55:33,42.805,6.029,CST-1368DR,4991,6347,13590,0.556,551
2022-01-06T07:58:34,42.805,6.029,CST-1368DR,4991,6349,13595,0.554,551
2022-01-06T08:01:36,42.805,6.029,CST-1368DR,4991,6344,13584,0.558,551
2022-01-06T08:04:37,42.805,6.029,CST-1368DR,4991,6345,13585,0.557,551
2022-01-06T08:07:39,42.805,6.029,CST-1368DR,4991,6337,13568,0.562,551
2022-01-06T08:10:40,42.805,6.029,CST-1368DR,4991,6339,13572,0.561,551
2022-01-06T08:13:42,42.805,6.029,CST-1368DR,4991,6349,13594,0.555,551
2022-01-06T08:16:44,42.805,6.029,CST-1368DR,4991,6348,13592,0.555,551
2022-01-06T08:19:45,42.805,6.029,CST-1368DR,4991,6348,13592,0.555,551
2022-01-06T08:22:47,42.805,6.029,CST-1368DR,4991,6350,13597,0.554,551
2022-01-06T08:25:48,42.805,6.029,CST-1368DR,4991,6348,13593,0.555,551
2022-01-06T08:28:50,42.805,6.029,CST-1368DR,4991,6347,13590,0.556,550
2022-01-06T08:31:52,42.805,6.029,CST-1368DR,4991,6349,13595,0.554,551
2022-01-06T08:34:53,42.805,6.029,CST-1368DR,4991,6349,13595,0.554,551
2022-01-06T08:37:55,42.805,6.029,CST-1368DR,4991,6348,13591,0.556,551
2022-01-06T08:40:56,42.805,6.029,CST-1368DR,4991,6345,13587,0.557,551
2022-01-06T08:43:58,42.805,6.029,CST-1368DR,4991,6344,13583,0.558,551
2022-01-06T08:46:59,42.805,6.029,CST-1368DR,4991,6349,13594,0.555,551
2022-01-06T08:50:01,42.805,6.029,CST-1368DR,4991,6349,13595,0.554,551
2022-01-06T08:53:03,42.805,6.029,CST-1368DR,4991,6348,13591,0.556,551
2022-01-06T08:56:04,42.805,6.029,CST-1368DR,4991,6348,13592,0.555,551
2022-01-06T08:59:06,42.805,6.029,CST-1368DR,4991,6350,13596,0.554,551
2022-01-06T09:02:07,42.805,6.029,CST-1368DR,4991,6348,13593,0.555,551
2022-01-06T09:05:09,42.805,6.029,CST-1368DR,4990,6350,13598,0.553,551
2022-01-06T09:08:10,42.805,6.029,CST-1368DR,4990,6349,13597,0.554,551
2022-01-06T09:11:12,42.805,6.029,CST-1368DR,4991,6349,13595,0.554,551
2022-01-06T09:14:14,42.805,6.029,CST-1368DR,4991,6349,13595,0.554,551
2022-01-06T09:17:15,42.805,6.029,CST-1368DR,4990,6349,13598,0.553,551
2022-01-06T09:20:17,42.805,6.029,CST-1368DR,4990,6348,13594,0.555,551
2022-01-06T09:23:18,42.805,6.029,CST-1368DR,4991,6349,13595,0.554,551
2022-01-06T09:26:20,42.805,6.029,CST-1368DR,4991,6348,13593,0.555,551
2022-01-06T09:29:22,42.805,6.029,CST-1368DR,4990,6349,13597,0.554,551
2022-01-06T09:32:23,42.805,6.029,CST-1368DR,4990,6349,13597,0.554,551
2022-01-06T09:35:25,42.805,6.029,CST-1368DR,4990,6349,13598,0.553,551
2022-01-06T09:38:26,42.805,6.029,CST-1368DR,4990,6350,13598,0.553,551
2022-01-06T09:41:28,42.805,6.029,CST-1368DR,4990,6350,13600,0.553,551
2022-01-06T09:44:29,42.805,6.029,CST-1368DR,4990,6349,13598,0.553,551
2022-01-06T09:47:31,42.805,6.029,CST-1368DR,4990,6350,13598,0.553,551
2022-01-06T09:50:33,42.805,6.029,CST-1368DR,4990,6350,13599,0.553,551
2022-01-06T09:53:34,42.805,6.029,CST-1368DR,4990,6350,13598,0.553,551
2022-01-06T09:56:36,42.805,6.029,CST-1368DR,4990,6350,13599,0.553,551
2022-01-06T09:59:37,42.805,6.029,CST-1368DR,4990,6350,13598,0.553,551
2022-01-06T10:02:39,42.805,6.029,CST-1368DR,4990,6350,13600,0.553,551
2022-01-06T10:05:41,42.805,6.029,CST-1368DR,4990,6351,13601,0.553,551
2022-01-06T10:08:42,42.805,6.029,CST-1368DR,4990,6350,13598,0.553,551
2022-01-06T10:11:44,42.805,6.029,CST-1368DR,4990,6350,13599,0.553,551
2022-01-06T10:14:45,42.805,6.029,CST-1368DR,4990,6350,13598,0.553,551
2022-01-06T10:17:47,42.805,6.029,CST-1368DR,4990,6350,13599,0.553,551
2022-01-06T10:20:48,42.805,6.029,CST-1368DR,4990,6351,13602,0.552,551
2022-01-06T10:23:50,42.805,6.029,CST-1368DR,4990,6349,13598,0.553,551
2022-01-06T10:26:52,42.805,6.029,CST-1368DR,4990,6349,13598,0.553,551
2022-01-06T10:29:53,42.805,6.029,CST-1368DR,4990,6350,13599,0.553,551
2022-01-06T10:32:55,42.805,6.029,CST-1368DR,4990,6350,13600,0.553,551
2022-01-06T10:35:56,42.805,6.029,CST-1368DR,4990,6350,13599,0.553,551
2022-01-06T10:38:58,42.805,6.029,CST-1368DR,4990,6350,13599,0.553,551
2022-01-06T10:42:00,42.805,6.029,CST-1368DR,4990,6350,13599,0.553,551
2022-01-06T10:45:01,42.805,6.029,CST-1368DR,4990,6350,13598,0.553,551
2022-01-06T10:48:03,42.805,6.029,CST-1368DR,4990,6350,13600,0.553,551
2022-01-06T10:51:04,42.805,6.029,CST-1368DR,4990,6350,13598,0.553,551
2022-01-06T10:54:06,42.805,6.029,CST-1368DR,4990,6349,13597,0.554,551
2022-01-06T10:57:07,42.805,6.029,CST-1368DR,4990,6350,13599,0.553,551
2022-01-06T11:00:09,42.805,6.029,CST-1368DR,4990,6349,13598,0.553,551
2022-01-06T11:03:11,42.805,6.029,CST-1368DR,4990,6349,13597,0.554,551
2022-01-06T11:06:12,42.805,6.029,CST-1368DR,4990,6349,13597,0.554,551
2022-01-06T11:09:14,42.805,6.029,CST-1368DR,4990,6349,13597,0.554,551
2022-01-06T11:12:15,42.805,6.029,CST-1368DR,4990,6349,13596,0.554,551
2022-01-06T11:15:17,42.805,6.029,CST-1368DR,4990,6350,13598,0.553,551
2022-01-06T11:18:18,42.805,6.029,CST-1368DR,4990,6349,13598,0.553,551
2022-01-06T11:21:20,42.805,6.029,CST-1368DR,4990,6348,13595,0.554,551
2022-01-06T11:24:22,42.805,6.029,CST-1368DR,4990,6349,13596,0.554,551
2022-01-06T11:27:23,42.805,6.029,CST-1368DR,4990,6346,13591,0.556,551
2022-01-06T11:30:25,42.805,6.029,CST-1368DR,4990,6348,13596,0.554,551
2022-01-06T11:33:26,42.805,6.029,CST-1368DR,4990,6348,13594,0.555,551
2022-01-06T11:36:28,42.805,6.029,CST-1368DR,4990,6348,13596,0.554,551
2022-01-06T11:39:30,42.805,6.029,CST-1368DR,4990,6348,13596,0.554,551
2022-01-06T11:42:31,42.805,6.029,CST-1368DR,4990,6349,13597,0.554,551
2022-01-06T11:45:33,42.805,6.029,CST-1368DR,4990,6349,13597,0.554,551
2022-01-06T11:48:34,42.805,6.029,CST-1368DR,4990,6349,13598,0.553,551
2022-01-06T11:51:36,42.805,6.029,CST-1368DR,4990,6349,13597,0.554,551
2022-01-06T11:54:37,42.805,6.029,CST-1368DR,4990,6349,13597,0.554,551
2022-01-06T11:57:39,42.805,6.029,CST-1368DR,4990,6349,13597,0.554,551
2022-01-06T12:00:41,42.805,6.029,CST-1368DR,4990,6348,13595,0.554,551
2022-01-06T12:03:42,42.805,6.029,CST-1368DR,4990,6349,13598,0.553,551
2022-01-06T12:06:44,42.805,6.029,CST-1368DR,4990,6350,13599,0.553,551
2022-01-06T12:09:45,42.805,6.029,CST-1368DR,4990,6349,13597,0.554,551
2022-01-06T12:12:47,42.805,6.029,CST-1368DR,4990,6349,13597,0.554,551
2022-01-06T12:15:49,42.805,6.029,CST-1368DR,4990,6350,13598,0.553,551
2022-01-06T12:18:50,42.805,6.029,CST-1368DR,4990,6349,13597,0.554,551
2022-01-06T12:21:52,42.805,6.029,CST-1368DR,4990,6347,13593,0.555,551
2022-01-06T12:24:53,42.805,6.029,CST-1368DR,4990,6350,13599,0.553,551
2022-01-06T12:27:55,42.805,6.029,CST-1368DR,4990,6349,13597,0.554,551
2022-01-06T12:30:56,42.805,6.029,CST-1368DR,4990,6349,13597,0.554,551
2022-01-06T12:33:58,42.805,6.029,CST-1368DR,4990,6349,13596,0.554,551
2022-01-06T12:37:00,42.805,6.029,CST-1368DR,4990,6349,13597,0.554,551
2022-01-06T12:40:01,42.805,6.029,CST-1368DR,4990,6350,13598,0.553,551
2022-01-06T12:43:03,42.805,6.029,CST-1368DR,4990,6348,13595,0.554,551
2022-01-06T12:46:04,42.805,6.029,CST-1368DR,4990,6348,13596,0.554,551
2022-01-06T12:49:06,42.805,6.029,CST-1368DR,4990,6349,13596,0.554,551
2022-01-06T12:52:08,42.805,6.029,CST-1368DR,4990,6346,13591,0.556,551
2022-01-06T12:55:09,42.805,6.029,CST-1368DR,4990,6348,13594,0.555,551
2022-01-06T12:58:11,42.805,6.029,CST-1368DR,4990,6349,13597,0.554,551
2022-01-06T13:01:12,42.805,6.029,CST-1368DR,4990,6349,13597,0.554,551
2022-01-06T13:04:14,42.805,6.029,CST-1368DR,4990,6350,13599,0.553,551
2022-01-06T13:07:15,42.805,6.029,CST-1368DR,4990,6349,13597,0.554,551
2022-01-06T13:10:17,42.805,6.029,CST-1368DR,4990,6349,13597,0.554,551
2022-01-06T13:13:19,42.805,6.029,CST-1368DR,4990,6349,13597,0.554,551
2022-01-06T13:16:20,42.805,6.029,CST-1368DR,4990,6350,13598,0.553,551
2022-01-06T13:19:22,42.805,6.029,CST-1368DR,4990,6349,13596,0.554,551
2022-01-06T13:22:23,42.805,6.029,CST-1368DR,4990,6349,13598,0.553,551
2022-01-06T13:25:25,42.805,6.029,CST-1368DR,4990,6348,13595,0.554,551
2022-01-06T13:28:27,42.805,6.029,CST-1368DR,4990,6348,13596,0.554,551
2022-01-06T13:31:28,42.805,6.029,CST-1368DR,4990,6349,13598,0.553,550
2022-01-06T13:34:30,42.805,6.029,CST-1368DR,4990,6349,13597,0.554,551
2022-01-06T13:37:31,42.805,6.029,CST-1368DR,4990,6349,13596,0.554,551
2022-01-06T13:40:33,42.805,6.029,CST-1368DR,4990,6348,13596,0.554,551
2022-01-06T13:43:34,42.805,6.029,CST-1368DR,4990,6349,13598,0.553,550
2022-01-06T13:46:36,42.805,6.029,CST-1368DR,4990,6348,13595,0.554,551
2022-01-06T13:49:38,42.805,6.029,CST-1368DR,4990,6349,13598,0.553,551
2022-01-06T13:52:39,42.805,6.029,CST-1368DR,4990,6350,13598,0.553,551
2022-01-06T13:55:41,42.805,6.029,CST-1368DR,4990,6348,13596,0.554,551
2022-01-06T13:58:42,42.805,6.029,CST-1368DR,4990,6349,13598,0.553,551
2022-01-06T14:01:44,42.805,6.029,CST-1368DR,4990,6349,13597,0.554,551
2022-01-06T14:04:45,42.805,6.029,CST-1368DR,4990,6349,13598,0.553,551
2022-01-06T14:07:47,42.805,6.029,CST-1368DR,4990,6349,13597,0.554,551
2022-01-06T14:10:49,42.805,6.029,CST-1368DR,4990,6348,13595,0.554,551
2022-01-06T14:13:50,42.805,6.029,CST-1368DR,4990,6349,13596,0.554,551
2022-01-06T14:16:52,42.805,6.029,CST-1368DR,4990,6348,13595,0.554,551
2022-01-06T14:19:53,42.805,6.029,CST-1368DR,4990,6347,13593,0.555,551
2022-01-06T14:22:55,42.805,6.029,CST-1368DR,4990,6349,13597,0.554,551
2022-01-06T14:25:57,42.805,6.029,CST-1368DR,4990,6349,13596,0.554,551
2022-01-06T14:28:58,42.805,6.029,CST-1368DR,4990,6349,13597,0.554,551
2022-01-06T14:32:00,42.805,6.029,CST-1368DR,4990,6345,13588,0.556,551
2022-01-06T14:35:01,42.805,6.029,CST-1368DR,4990,6348,13595,0.554,551
2022-01-06T14:38:03,42.805,6.029,CST-1368DR,4990,6349,13597,0.554,551
2022-01-06T14:41:04,42.805,6.029,CST-1368DR,4990,6345,13588,0.556,551
2022-01-06T14:44:06,42.805,6.029,CST-1368DR,4990,6349,13597,0.554,551
2022-01-06T14:47:08,42.805,6.029,CST-1368DR,4990,6348,13596,0.554,551
2022-01-06T14:50:09,42.805,6.029,CST-1368DR,4990,6349,13596,0.554,551
2022-01-06T14:53:11,42.805,6.029,CST-1368DR,4990,6345,13589,0.556,551
2022-01-06T14:56:12,42.805,6.029,CST-1368DR,4990,6348,13594,0.555,551
2022-01-06T14:59:14,42.805,6.029,CST-1368DR,4990,6349,13596,0.554,551
2022-01-06T15:02:16,42.805,6.029,CST-1368DR,4990,6349,13597,0.554,551
2022-01-06T15:05:17,42.805,6.029,CST-1368DR,4990,6349,13597,0.554,551
2022-01-06T15:08:19,42.805,6.029,CST-1368DR,4990,6349,13596,0.554,551
2022-01-06T15:11:20,42.805,6.029,CST-1368DR,4990,6349,13596,0.554,551
2022-01-06T15:14:22,42.805,6.029,CST-1368DR,4990,6349,13597,0.554,551
2022-01-06T15:17:23,42.805,6.029,CST-1368DR,4990,6349,13596,0.554,551
2022-01-06T15:20:25,42.805,6.029,CST-1368DR,4990,6349,13597,0.554,551
2022-01-06T15:23:27,42.805,6.029,CST-1368DR,4990,6348,13594,0.555,551
2022-01-06T15:26:28,42.805,6.029,CST-1368DR,4990,6348,13596,0.554,551
2022-01-06T15:29:30,42.805,6.029,CST-1368DR,4990,6349,13596,0.554,551
2022-01-06T15:32:31,42.805,6.029,CST-1368DR,4990,6349,13598,0.553,551
2022-01-06T15:35:33,42.805,6.029,CST-1368DR,4990,6348,13596,0.554,551
2022-01-06T15:38:35,42.805,6.029,CST-1368DR,4990,6349,13597,0.554,551
2022-01-06T15:41:36,42.805,6.029,CST-1368DR,4990,6349,13597,0.554,551
2022-01-06T15:44:38,42.805,6.029,CST-1368DR,4990,6349,13597,0.554,551
2022-01-06T15:47:39,42.805,6.029,CST-1368DR,4990,6349,13596,0.554,551
2022-01-06T15:50:41,42.805,6.029,CST-1368DR,4990,6349,13596,0.554,551
2022-01-06T15:53:42,42.805,6.029,CST-1368DR,4990,6350,13598,0.553,551
2022-01-06T15:56:44,42.805,6.029,CST-1368DR,4990,6350,13598,0.553,551
2022-01-06T15:59:46,42.805,6.029,CST-1368DR,4990,6350,13598,0.553,551
2022-01-06T16:02:47,42.805,6.029,CST-1368DR,4990,6350,13599,0.553,551
2022-01-06T16:05:49,42.805,6.029,CST-1368DR,4989,6347,13595,0.554,551
2022-01-06T16:08:50,42.805,6.029,CST-1368DR,4989,6344,13589,0.556,551
2022-01-06T16:11:52,42.805,6.029,CST-1368DR,4989,6336,13571,0.561,551
2022-01-06T16:14:54,42.805,6.029,CST-1368DR,4989,6346,13593,0.555,551
2022-01-06T16:17:55,42.805,6.029,CST-1368DR,4989,6337,13573,0.561,551
2022-01-06T16:20:57,42.805,6.029,CST-1368DR,4989,6337,13575,0.560,551
2022-01-06T16:23:58,42.805,6.029,CST-1368DR,4989,6340,13580,0.559,551
2022-01-06T16:27:00,42.805,6.029,CST-1368DR,4989,6319,13535,0.572,551
2022-01-06T16:30:01,42.805,6.029,CST-1368DR,4989,6347,13595,0.554,551
2022-01-06T16:33:03,42.805,6.029,CST-1368DR,4989,6348,13598,0.553,551
2022-01-06T16:36:05,42.805,6.029,CST-1368DR,4989,6342,13585,0.557,551
2022-01-06T16:39:06,42.805,6.029,CST-1368DR,4989,6343,13586,0.557,551
2022-01-06T16:42:08,42.805,6.029,CST-1368DR,4989,6346,13592,0.555,550
2022-01-06T16:45:09,42.805,6.029,CST-1368DR,4989,6346,13593,0.555,551
2022-01-06T16:48:11,42.805,6.029,CST-1368DR,4989,6339,13579,0.559,551
2022-01-06T16:51:12,42.805,6.029,CST-1368DR,4989,6334,13567,0.563,551